This demonstration page uses our WeatherBlox Daily Observations layout. Learn more.

Left ArrowRight Arrow

Hourly Observations for January 23, 2015

Temp ( °F °C ) Dew Point ( °F °C ) Humidity (%) Winds ( mph kmh ) Pressure ( in mb ) Visibility ( mi km ) Precip ( " mm )
12:51 am 00:51 Clear 31 -0.6 27 -2.8 85 85 SSE 6 9 30.35 1028 10 16 N/A
1:51 am 01:51 Clear 31 -0.6 26 -3.3 82 82 SSE 9 15 30.37 1028 10 16 N/A
2:51 am 02:51 Clear 30 -1.1 26 -3.3 85 85 E 7 11 30.37 1028 10 16 N/A
3:51 am 03:51 Clear 32 undefined 26 -3.3 79 79 ESE 12 19 30.35 1028 10 16 N/A
4:51 am 04:51 Clear 32 undefined 26 -3.3 79 79 ESE 8 13 30.35 1028 10 16 N/A
5:51 am 05:51 Clear 32 undefined 26 -3.3 79 79 E 8 13 30.34 1028 10 16 N/A
6:51 am 06:51 Clear 30 -1.1 25 -3.9 82 82 SE 12 19 30.36 1028 10 16 N/A
7:51 am 07:51 Sunny 30 -1.1 24 -4.4 79 79 SE 9 15 30.37 1029 10 16 N/A
8:51 am 08:51 Sunny 36 2.2 26 -3.3 67 67 ESE 13 20 30.37 1029 10 16 N/A
9:51 am 09:51 Sunny 40 4.4 25 -3.9 55 55 E 12 19 30.37 1029 10 16 N/A
10:51 am 10:51 Sunny 44 6.7 23 -5 43 43 E 9 15 30.36 1028 10 16 N/A
11:51 am 11:51 Sunny 46 7.8 22 -5.6 38 38 ESE 9 15 30.33 1027 10 16 N/A
12:51 pm 12:51 Sunny 48 8.9 19 -7.2 32 32 VRB 5 7 30.28 1025 10 16 N/A
1:51 pm 13:51 Sunny 50 10 18 -7.8 28 28 SE 8 13 30.24 1024 10 16 N/A
2:51 pm 14:51 Sunny 52 11.1 14 -10 22 22 SSE 12 19 30.22 1023 10 16 N/A
3:51 pm 15:51 Sunny 53 11.7 15 -9.4 22 22 SSE 8 13 30.19 1022 10 16 N/A
4:51 pm 16:51 Sunny 52 11.1 16 -8.9 24 24 S 6 9 30.19 1022 10 16 N/A
5:51 pm 17:51 Clear 48 8.9 18 -7.8 30 30 SSE 7 11 30.19 1023 10 16 N/A
6:51 pm 18:51 Clear 47 8.3 16 -8.9 29 29 ESE 10 17 30.22 1023 10 16 N/A
7:51 pm 19:51 Clear 46 7.8 20 -6.7 35 35 ESE 12 19 30.24 1024 10 16 N/A
8:51 pm 20:51 Clear 44 6.7 22 -5.6 41 41 E 10 17 30.23 1024 10 16 N/A
9:51 pm 21:51 Clear 41 5 21 -6.1 45 45 SE 9 15 30.24 1024 10 16 N/A
10:51 pm 22:51 Clear 40 4.4 22 -5.6 49 49 SE 10 17 30.24 1024 10 16 N/A
11:51 pm 23:51 Clear 40 4.4 23 -5 51 51 SE 10 17 30.24 1024 10 16 N/A

Powered by AerisWeather